Back to catalog

THORAD AGENA D DEB

AliveSSO
NORAD 4772·DEBRIS·🇺🇸 United States

Launched Apr 8, 1970 from Vandenberg Space Force Base

Loading…

Next Passes (next 24 hours)

TLE

FreshSource: Space-Track

Epoch: Sep 14, 2026, 05:46 UTC

1 04772U 70025DS  26257.24044190  .00000231  00000-0  55413-3 0  9997
2 04772  99.7722  47.8982 0180406  77.6673  44.0376 13.27071021713987

Track THORAD AGENA D DEB in real time with AllMySat

Download on the App Store